Tracking 29892 objects as of 21-Nov-2024
HD Live streaming from Space Station
objects crossing your sky now

ONEWEB-0404

Track ONEWEB-0404 now!
10-day predictions
ONEWEB-0404 is classified as:


NORAD ID: 50484
Int'l Code: 2021-132R
Perigee: 1,223.6 km
Apogee: 1,226.1 km
Inclination: 87.9 °
Period: 109.8 minutes
Semi major axis: 7595 km
RCS: Unknown
Launch date: December 27, 2021
Source: United Kingdom (UK)
Launch site: TYURATAM MISSILE AND SPACE COMPLEX (TTMTR)
Your satellite tracking list
Your tracking list is empty




NASA's NSSDC Master Catalog

Two Line Element Set (TLE):
1 50484U 21132R   24325.88496657 -.00000516  00000-0 -14926-2 0  9997
2 50484  87.8885 135.2933 0001619 106.5340 253.5966 13.11414025141823
Source of the keplerian elements: AFSPC